2023�N�x�@��C������Ԃɂ�鑪�茋��,,,,,,,,,,,,,,,
,,,,,,,,,,,,,,,
�P�@����n�_,,,,,,,,,,,,,,,
�򓇑��؏�(�C���S�򓇑��؏�2����67-1),,,,,,,,,,,,,,,
,,,,,,,,,,,,,,,
�Q�@���Ԓl�i�m��l�j��2023�N8��3���`2023�N8��25��,,,,,,,,,,,,,,,
,,,,,,,,,,,,,,,
,�N,��,��,��,SO2,SPM,Ox,CO,NO,NO2,PM2.5,���x,���x,����,����
,,,,,ppm,mg/m3,ppm,ppm,ppm,ppm,��g/m3,��,%,�ő�,m/s
R5,2023,8,3,1,***,0.019,0.004,***,***,***,6,29.2,80.7,ESE,2
R5,2023,8,3,2,0.002,0.025,0.005,0.4,0.005,0.009,6,29.1,82.1,ESE,1.6
R5,2023,8,3,3,0.003,0.021,0.005,0.4,0.009,0.009,6,28.8,83.7,ESE,1.9
R5,2023,8,3,4,0.006,0.029,0.005,0.5,0.015,0.009,8,28.7,82.9,ESE,2.2
R5,2023,8,3,5,0.007,0.036,0.003,0.7,0.019,0.009,9,28.5,83.4,ESE,2.1
R5,2023,8,3,6,0.006,0.033,0.002,0.7,0.028,0.009,10,28.6,80,ESE,1.7
R5,2023,8,3,7,0.009,0.041,0.005,0.9,0.038,0.009,14,29,77.6,ESE,1.9
R5,2023,8,3,8,0.007,0.028,0.005,0.9,0.026,0.01,9,30.3,70.9,ESE,2
R5,2023,8,3,9,0.007,0.041,0.008,0.8,0.02,0.009,11,32.1,65.4,SE,2.1
R5,2023,8,3,10,0.006,0.039,0.016,0.6,0.01,0.008,11,32.9,62.7,S,2.3
R5,2023,8,3,11,0.009,0.044,0.018,0.5,0.012,0.008,12,33.5,55.3,S,1.7
R5,2023,8,3,12,***,0.052,***,0.3,***,***,13,34.1,56.9,WSW,1.5
R5,2023,8,3,13,0.006,0.073,0.015,0.1,0.013,0.012,15,34.5,58.4,WSW,2.4
R5,2023,8,3,14,0.005,0.063,0.019,0.1,0.009,0.009,16,33.3,60.7,SSE,3.6
R5,2023,8,3,15,0.005,0.05,0.021,0.1,0.007,0.008,15,32.4,64,S,3.4
R5,2023,8,3,16,0.003,0.044,0.018,0.1,0.008,0.009,14,32.5,64.2,SSE,3.1
R5,2023,8,3,17,0.003,0.032,0.017,0.1,0.007,0.008,10,32.2,64.4,SSE,2.8
R5,2023,8,3,18,0.002,0.014,0.019,0.1,0.003,0.007,6,31.4,59.7,SE,3.2
R5,2023,8,3,19,0.003,0.014,0.015,0.2,0.002,0.01,5,29.9,69.2,SSE,3.3
R5,2023,8,3,20,0.002,0.011,0.018,0.1,0.001,0.008,4,29.5,73.8,SE,1.9
R5,2023,8,3,21,0.001,0.013,0.014,0.1,0.001,0.011,4,29.2,78.7,SE,1.9
R5,2023,8,3,22,0.002,0.014,0.008,0.1,0.006,0.013,4,28.8,81.7,SSE,1.7
R5,2023,8,3,23,0.001,0.015,0.006,0.1,0.006,0.013,3,28.7,83.6,SE,1.9
R5,2023,8,3,24,0.001,0.019,0.005,0.1,0.007,0.012,4,28.7,84.4,ESE,1.3
R5,2023,8,4,1,0.001,0.016,0.005,0.1,0.004,0.012,3,28.5,84.9,SSE,2.3
R5,2023,8,4,2,0.001,0.021,0.008,0.2,0.003,0.009,5,28.8,84.5,SE,1.2
R5,2023,8,4,3,0.001,0.025,0.006,0.1,0.005,0.011,3,28.4,86.9,SSE,1.8
R5,2023,8,4,4,0.001,0.026,0.006,0.1,0.009,0.012,4,28.4,86.1,ESE,0.9
R5,2023,8,4,5,0.001,0.028,0.008,0.1,0.01,0.013,5,28.3,86.6,SE,0.7
R5,2023,8,4,6,0.001,0.017,0.002,0.2,0.026,0.014,5,28.2,83.9,NW,0.5
R5,2023,8,4,7,0.001,0.022,0.001,0.2,0.04,0.016,6,28.5,82.7,N,0.3
R5,2023,8,4,8,0.001,0.02,0.01,0.2,0.033,0.017,5,29.3,77.7,WSW,0.4
R5,2023,8,4,9,0.002,0.015,0.013,0.2,0.028,0.015,5,30.6,68.7,WSW,0.6
R5,2023,8,4,10,0.002,0.027,0.02,0.4,0.027,0.021,7,32.3,63.2,WSW,1.5
R5,2023,8,4,11,0.001,0.033,0.019,0.2,0.027,0.023,7,33.7,61.3,WSW,1.6
R5,2023,8,4,12,0.001,0.03,0.021,0.1,0.029,0.027,6,34.5,57.7,WSW,1.6
R5,2023,8,4,13,0.001,0.032,0.032,0.1,0.012,0.018,6,34.7,57.7,WSW,2.4
R5,2023,8,4,14,0.002,0.044,0.019,0.1,0.033,0.027,6,36.2,55.7,WSW,2.1
R5,2023,8,4,15,0.001,0.011,0.028,0.1,0.016,0.018,4,36.3,52,WSW,2.4
R5,2023,8,4,16,0.001,0.023,0.025,0.1,0.015,0.015,4,34.1,60.5,S,3.8
R5,2023,8,4,17,0.001,0.013,0.026,0.1,0.009,0.011,5,34.3,56.8,SW,1.4
R5,2023,8,4,18,0,0.013,0.02,0.1,0.01,0.013,4,32.3,63.6,SSW,1.6
R5,2023,8,4,19,0.001,0.01,0.022,0.1,0.002,0.007,2,30.8,67.5,SSE,3.4
R5,2023,8,4,20,0.001,0.013,0.019,0.1,0.002,0.008,4,30.3,73.7,ESE,1.8
R5,2023,8,4,21,0.001,0.016,0.014,0.1,0.005,0.012,3,29.6,77.5,SSE,2.6
R5,2023,8,4,22,0.001,0.015,0.015,0.1,0.001,0.009,4,29.3,78.7,ESE,1.4
R5,2023,8,4,23,0.001,0.016,0.01,0.2,0.003,0.013,4,29.1,80.7,SE,1.7
R5,2023,8,4,24,0.001,0.017,0.012,0.2,0.003,0.013,5,29,81.4,ESE,1.7
R5,2023,8,5,1,0.001,0.017,0.015,0.2,0.002,0.01,4,28.7,83.2,SSE,2.4
R5,2023,8,5,2,0.001,0.018,0.017,0.1,0.001,0.007,4,28.7,82.4,SSE,2
R5,2023,8,5,3,0.002,0.02,0.017,0.1,0.001,0.008,4,28.4,84.4,SSE,1.4
R5,2023,8,5,4,0.001,0.022,0.014,0.2,0.001,0.01,4,28.7,83.4,ESE,1.1
R5,2023,8,5,5,0.004,0.031,0.007,0.5,0.002,0.015,6,28.4,85.7,ESE,1.2
R5,2023,8,5,6,0.002,0.014,0.003,0.3,0.009,0.015,4,28.3,81.2,E,2.7
R5,2023,8,5,7,0.002,0.011,0.007,0.3,0.009,0.011,4,29.1,75.9,ESE,1.9
R5,2023,8,5,8,0.002,0.02,0.009,0.6,0.009,0.012,3,29,83.3,ESE,1.9
R5,2023,8,5,9,0.002,0.018,0.012,0.3,0.013,0.012,7,29.7,73.4,ESE,1.3
R5,2023,8,5,10,0.003,0.025,0.014,0.8,0.017,0.015,8,32.2,62.6,S,1.4
R5,2023,8,5,11,0.001,0.027,0.024,0.2,0.007,0.012,6,32.2,68.7,SW,1.6
R5,2023,8,5,12,0.001,0.015,0.025,0.1,0.008,0.012,6,34.1,56.8,SSW,1.6
R5,2023,8,5,13,0.001,0.014,0.03,0.1,0.003,0.005,3,35.9,50.6,SW,2.1
R5,2023,8,5,14,0.001,0.036,0.028,0.1,0.004,0.007,5,35.6,53,SSW,2
R5,2023,8,5,15,0.001,***,0.02,0.1,0.007,0.008,5,34.2,62.6,SW,2.8
R5,2023,8,5,16,0.001,***,0.021,0.1,0.002,0.003,2,33.8,62.7,SW,2.6
R5,2023,8,5,17,0.001,***,0.02,0.1,0.002,0.003,2,32.2,62,SSE,4.1
R5,2023,8,5,18,0.001,0.006,0.019,0.1,0.001,0.004,4,31.4,69.5,S,2.3
R5,2023,8,5,19,0.002,0.023,0.013,0.2,0.002,0.008,4,30.2,76.6,S,2.6
R5,2023,8,5,20,0.002,0,0.012,0.2,0.001,0.008,2,29.7,77.4,SSE,3
R5,2023,8,5,21,0.001,0.008,0.014,0.1,0.001,0.005,2,29.9,77.2,ESE,2.1
R5,2023,8,5,22,0.001,0.011,0.013,0.1,0.001,0.006,2,29.6,78.9,SE,2.2
R5,2023,8,5,23,0.001,0.012,0.012,0.1,0.001,0.006,3,29.1,80.2,SE,2.5
R5,2023,8,5,24,0.001,0.014,0.011,0.2,0.001,0.006,3,29.4,79,ESE,1.3
R5,2023,8,6,1,0.005,0.023,0.004,0.7,0.011,0.014,8,29.3,78.9,ESE,1.8
R5,2023,8,6,2,0.003,0.016,0.005,0.4,0.003,0.01,6,28.8,81,ESE,2
R5,2023,8,6,3,0.002,0.007,0.004,0.2,0.002,0.01,3,28.5,80.7,E,2.2
R5,2023,8,6,4,0.001,0.008,0.006,0.2,0.001,0.008,2,29.1,77.9,E,0.8
R5,2023,8,6,5,0.001,0.009,0.004,0.3,0.003,0.009,5,29,76.9,ENE,0.6
R5,2023,8,6,6,0.001,0.009,0.004,0.2,0.003,0.008,3,28.8,76.1,ESE,1.8
R5,2023,8,6,7,0.003,0.016,0.004,0.6,0.007,0.009,6,29.6,73.9,E,1.8
R5,2023,8,6,8,0.005,0.022,0.008,0.6,0.012,0.008,8,31.2,64.5,ESE,2.4
R5,2023,8,6,9,0.004,0.025,0.012,0.3,0.006,0.006,7,32.2,62.9,ESE,2.3
R5,2023,8,6,10,0.003,0.028,0.014,0.2,0.003,0.004,9,32.9,58.9,ESE,2.5
R5,2023,8,6,11,0.002,0.019,0.017,0.2,0.003,0.004,6,33.6,56.8,SE,2.9
R5,2023,8,6,12,0.001,0.011,0.022,0.1,0.001,0.002,4,33.8,55.9,SSE,4.1
R5,2023,8,6,13,0.001,0.024,0.025,0.1,0.001,0.002,7,34.3,56.3,SSE,3.5
R5,2023,8,6,14,0.001,0.016,0.027,0.1,0.001,0.002,4,34.8,53.1,S,4
R5,2023,8,6,15,0.001,0.023,0.023,0.1,0.001,0.001,5,34.3,56.6,SSE,4.7
R5,2023,8,6,16,0.001,0.009,0.021,0.1,0.001,0.002,4,33.6,56.7,SE,3.9
R5,2023,8,6,17,0.001,0.011,0.021,0.1,0.001,0.002,3,32.6,59.4,SSE,4.2
R5,2023,8,6,18,0.001,0.012,0.02,0.3,0.001,0.004,5,31.4,67.7,ESE,3.1
R5,2023,8,6,19,0.002,0.035,0.016,0.5,0.001,0.006,6,27.9,89.1,ESE,3.5
R5,2023,8,6,20,0.002,0.006,0.015,0.3,0.001,0.008,4,28.2,87.9,ESE,2.1
R5,2023,8,6,21,0.003,0.018,0.012,0.5,0.002,0.01,5,28.3,86.1,ESE,3
R5,2023,8,6,22,0.003,0.017,0.013,0.4,0.001,0.009,6,27,91.5,ESE,2.8
R5,2023,8,6,23,0.005,0.021,0.013,0.6,0.002,0.013,5,27.1,89.8,SE,2.1
R5,2023,8,6,24,0.005,0.023,0.009,1.3,0.002,0.016,7,27.8,85.5,ESE,2.1
R5,2023,8,7,1,0.007,0.025,0.007,0.8,0.002,0.014,9,27.6,84.9,ESE,2.6
R5,2023,8,7,2,0.005,0.018,0.007,0.8,0.002,0.012,6,27.6,85.6,E,2.5
R5,2023,8,7,3,0.004,0.024,0.008,0.5,0.002,0.011,7,26.1,98.6,ESE,2
R5,2023,8,7,4,0.004,0.026,0.005,0.6,0.003,0.015,6,26.4,94.7,ESE,1.7
R5,2023,8,7,5,0.006,0.024,0.003,1.1,0.007,0.017,7,26.6,90.9,E,2.5
R5,2023,8,7,6,0.005,0.022,0.003,0.6,0.007,0.015,6,26.9,90.9,E,1.9
R5,2023,8,7,7,0.002,0.003,0.004,0.3,0.016,0.014,4,27.6,84.4,E,1.6
R5,2023,8,7,8,0.002,0.004,0.005,0.5,0.022,0.013,5,28.7,77.1,E,2.4
R5,2023,8,7,9,0.004,0.017,0.008,0.8,0.024,0.015,8,30.1,72.8,SE,2.8
R5,2023,8,7,10,0.003,0.027,0.012,0.7,0.017,0.013,9,30.9,67.7,ESE,3.1
R5,2023,8,7,11,0.004,0.016,0.015,0.4,0.01,0.01,6,31.1,66.6,ESE,3
R5,2023,8,7,12,0.003,0.019,0.016,0.4,0.012,0.01,5,31.3,67.2,ESE,3.4
R5,2023,8,7,13,0.002,0.004,0.02,0.2,0.004,0.006,3,32.2,64,ESE,3.2
R5,2023,8,7,14,0.002,0.012,0.019,0.2,0.009,0.01,5,32.2,64.2,SE,3.7
R5,2023,8,7,15,0.001,0.025,0.016,0.1,0.01,0.01,4,30.8,70.5,SSE,3.1
R5,2023,8,7,16,0.001,0.019,0.015,0.1,0.008,0.009,5,30.6,73.5,SSE,4.3
R5,2023,8,7,17,0.001,0.005,0.012,0.1,0.008,0.009,5,29.6,75,SSE,2.9
R5,2023,8,7,18,0.001,0.013,0.013,0.1,0.005,0.01,3,30.2,71.7,SE,2
R5,2023,8,7,19,0.001,0.025,0.012,0.2,0.004,0.011,4,30,73.4,SE,1.9
R5,2023,8,7,20,0.003,0.008,0.012,0.3,0.002,0.01,6,29.9,72.6,ESE,2.1
R5,2023,8,7,21,0.004,0.015,0.01,0.4,0.002,0.009,4,29.1,75.4,ESE,2.1
R5,2023,8,7,22,0.007,0.014,0.007,0.7,0.003,0.011,4,29,75.1,ESE,2
R5,2023,8,7,23,0.005,0.011,0.009,0.6,0.002,0.01,4,29,74.6,E,2.1
R5,2023,8,7,24,0.01,0.018,0.004,0.9,0.004,0.011,9,29,72.8,ESE,3.1
R5,2023,8,8,1,0.008,0.019,0.005,0.5,0.004,0.01,8,28.2,77.9,ESE,3.7
R5,2023,8,8,2,0.007,0.018,0.004,0.8,0.003,0.009,6,27.9,80.2,ESE,3.1
R5,2023,8,8,3,0.008,0.012,0.001,0.8,0.011,0.012,3,27.9,78.6,E,3.3
R5,2023,8,8,4,0.008,0.011,0.001,0.5,0.009,0.012,4,28.2,76.9,E,2.4
R5,2023,8,8,5,0.006,0.017,0.001,0.4,0.009,0.013,5,27.8,82,E,1.2
R5,2023,8,8,6,0.003,0.012,0.002,0.5,0.021,0.015,4,27.9,80.8,ENE,0.6
R5,2023,8,8,7,0.002,0.006,0.007,0.2,0.027,0.018,2,29,71.9,ESE,1.2
R5,2023,8,8,8,0.006,0.014,0.008,0.9,0.02,0.011,6,30.9,62.1,ESE,2.4
R5,2023,8,8,9,0.004,0.012,0.012,0.4,0.013,0.009,5,32.5,56.1,ESE,3
R5,2023,8,8,10,0.003,0.017,0.016,0.3,0.012,0.01,4,33.5,54.5,ESE,2.9
R5,2023,8,8,11,0.002,0.005,0.022,0.1,0.01,0.01,6,34.4,50.1,SE,3.6
R5,2023,8,8,12,0.002,0.019,0.025,0.1,0.008,0.011,5,34.7,52.4,ESE,2.3
R5,2023,8,8,13,0.002,0.01,0.03,0.2,0.004,0.008,4,34.9,51.3,ESE,3.9
R5,2023,8,8,14,0.001,0.02,0.027,0.2,0.008,0.012,4,35,52.5,ESE,3.1
R5,2023,8,8,15,0.001,0.018,0.025,0.1,0.009,0.012,4,34.5,53.4,SE,3.6
R5,2023,8,8,16,0.001,0.008,0.026,0.1,0.007,0.011,6,33.3,59.3,SSE,4.8
R5,2023,8,8,17,0.001,0.024,0.02,0.1,0.006,0.008,6,31.1,69.9,SSE,4.4
R5,2023,8,8,18,0.001,0.021,0.017,0.1,0.004,0.008,6,31,69.7,SE,3.1
R5,2023,8,8,19,0.001,0.018,0.019,0.1,0.002,0.007,6,30.5,75.2,SSE,3.2
R5,2023,8,8,20,0.001,0.018,0.016,0.1,0.001,0.006,3,30,75.8,SE,3.4
R5,2023,8,8,21,0.001,0.026,0.013,0.1,0.004,0.009,6,30,77.6,SE,2.2
R5,2023,8,8,22,0.002,0.022,0.011,0.2,0.003,0.007,6,29.8,78.8,SE,2.6
R5,2023,8,8,23,0.001,0.022,0.012,0.1,0.001,0.006,5,29.7,77.2,ESE,2.1
R5,2023,8,8,24,0.001,0.024,0.012,0.2,0.002,0.006,6,29.2,79,SE,2.1
R5,2023,8,9,1,0.004,0.016,0.009,0.4,0.003,0.009,6,29.3,78.2,ESE,2.4
R5,2023,8,9,2,0.003,0.014,0.01,0.3,0.003,0.007,3,28.8,80.2,SE,1.7
R5,2023,8,9,3,0.002,0.012,0.009,0.3,0.002,0.007,3,28.8,79.3,SE,1.4
R5,2023,8,9,4,0.003,0.014,0.01,0.2,0.002,0.007,3,28.4,82.8,ESE,1.7
R5,2023,8,9,5,0.003,0.016,0.002,1.1,0.004,0.008,5,27.8,86.1,ESE,3.7
R5,2023,8,9,6,0.005,0.014,0.002,0.6,0.006,0.008,4,28.2,84.4,ESE,2.5
R5,2023,8,9,7,0.004,0.013,0.005,0.7,0.008,0.007,4,29.6,78.7,ESE,3
R5,2023,8,9,8,0.003,0.024,0.007,0.7,0.008,0.005,4,30,78.7,ESE,3.1
R5,2023,8,9,9,0.003,0.012,0.009,0.6,0.017,0.008,6,31.4,72.4,SE,2.6
R5,2023,8,9,10,0.003,0.019,0.012,0.3,0.013,0.008,4,32.3,67.7,ESE,3.9
R5,2023,8,9,11,0.001,0.024,0.015,0.1,0.009,0.007,4,32.6,67.3,SE,3.6
R5,2023,8,9,12,0.001,***,0.016,0.1,0.013,0.01,4,32.4,69.2,SSE,3.3
R5,2023,8,9,13,0.001,***,0.014,0.2,0.005,0.006,3,30.8,78.4,ESE,3.4
R5,2023,8,9,14,0.002,***,0.01,0.2,0.013,0.008,5,31.7,70.8,ESE,3.7
R5,2023,8,9,15,0.002,0.025,0.011,0.2,0.011,0.006,4,31.1,72.7,ESE,4
R5,2023,8,9,16,0.001,0.029,0.011,0.1,0.01,0.007,4,30.3,79.6,ESE,3.4
R5,2023,8,9,17,0.001,0.003,0.009,0.1,0.012,0.008,5,30.2,79.9,SSE,2.9
R5,2023,8,9,18,0.002,0.017,0.009,0.2,0.009,0.008,4,29.9,80.7,ESE,3.2
R5,2023,8,9,19,0.003,0.023,0.01,0.3,0.003,0.006,6,29.3,83,ESE,2.8
R5,2023,8,9,20,0.003,0.029,0.008,0.4,0.002,0.005,5,28.3,87.1,ESE,2.9
R5,2023,8,9,21,0.005,0.022,0.005,0.6,0.004,0.008,5,28.8,84.2,ESE,3.3
R5,2023,8,9,22,0.005,0.018,0.007,0.4,0.002,0.007,6,28.7,82.9,ESE,3.8
R5,2023,8,9,23,0.005,0.026,0.008,0.5,0.005,0.007,7,28.8,83.2,ESE,3.1
R5,2023,8,9,24,0.005,0.027,0.009,0.4,0.002,0.008,6,28.7,84.2,ESE,2.2
R5,2023,8,10,1,***,0.036,0.011,***,***,***,7,28.1,90.7,SE,3.6
R5,2023,8,10,2,0.002,0.026,0.011,0.1,0.002,0.008,4,28.1,86.8,SE,4
R5,2023,8,10,3,0.001,0.054,0.01,0.1,0.002,0.009,6,27.6,92.9,ESE,2.4
R5,2023,8,10,4,0.004,0.036,0.011,0.4,0.001,0.007,7,28.1,86.5,ESE,2.3
R5,2023,8,10,5,0.005,0.04,0.009,0.5,0.002,0.01,9,27.9,85.8,ESE,1.7
R5,2023,8,10,6,0.005,0.031,0.009,0.4,0.003,0.01,8,28.1,82.4,ESE,1.7
R5,2023,8,10,7,0.005,0.028,0.013,0.3,0.004,0.007,7,28.8,77.7,ESE,3.3
R5,2023,8,10,8,0.004,0.033,0.016,0.2,0.006,0.006,7,30,70.6,SE,5.2
R5,2023,8,10,9,0.002,0.031,0.017,0.1,0.012,0.009,8,31.2,65.2,SE,4.8
R5,2023,8,10,10,0.002,0.028,0.02,0.1,0.01,0.008,8,32.4,59.2,SE,5.5
R5,2023,8,10,11,0.002,0.037,0.023,0.1,0.007,0.008,10,32.3,62.2,SE,3.9
R5,2023,8,10,12,0.002,0.029,0.024,0.1,0.007,0.008,6,33.6,53.8,SSE,5.3
R5,2023,8,10,13,0.002,0.029,0.024,0.1,0.003,0.004,5,34,50.5,SSE,6.5
R5,2023,8,10,14,0.002,0.023,0.02,0.1,0.009,0.009,6,34.3,47.4,SE,4
R5,2023,8,10,15,0.002,0.017,0.021,0.1,0.007,0.007,5,34.2,47.6,SE,4.6
R5,2023,8,10,16,0.002,0.025,0.02,0.1,0.008,0.007,6,33.4,52.8,SE,5
R5,2023,8,10,17,0.001,0.031,0.022,0.1,0.005,0.007,7,32.3,58.8,SE,4.9
R5,2023,8,10,18,0.001,0.03,0.02,0.1,0.002,0.006,7,30.9,66.2,SSE,4.4
R5,2023,8,10,19,0.001,0.013,0.019,0.1,0.001,0.004,7,30.3,63.3,SSE,4.5
R5,2023,8,10,20,0.001,0.026,0.017,0.1,0.001,0.005,7,29.7,69.7,SSE,3.6
R5,2023,8,10,21,0.001,0.029,0.018,0.1,0,0.004,8,29.4,72.2,SSE,2.8
R5,2023,8,10,22,0.001,0.026,0.016,0.1,0,0.006,6,29.1,73.8,SE,3.1
R5,2023,8,10,23,0.001,0.021,0.017,0.1,0.001,0.004,6,28.8,74.5,SSE,3.2
R5,2023,8,10,24,0.001,0.025,0.013,0.1,0.001,0.006,6,28.7,75.2,SSE,2.6
R5,2023,8,11,1,0.001,0.018,0.014,0.1,0.001,0.005,6,28.5,75.5,SSE,2.9
R5,2023,8,11,2,0.001,0.016,0.011,0.1,0.001,0.008,5,28.4,75.5,SE,1.8
R5,2023,8,11,3,0.002,0.015,0.011,0.2,0.001,0.008,6,28,75.3,SSE,2.5
R5,2023,8,11,4,0.002,0.017,0.013,0.1,0.001,0.007,6,27.9,75.2,SSE,1.5
R5,2023,8,11,5,0.005,0.025,0.006,0.5,0.006,0.014,8,28.1,75.5,ENE,0.9
R5,2023,8,11,6,0.002,0.012,0.003,0.2,0.008,0.012,6,28.2,68.4,NE,0.7
R5,2023,8,11,7,0.002,0.015,0.006,0.2,0.01,0.011,7,29.1,65,NE,0.8
R5,2023,8,11,8,0.002,0.019,0.01,0.2,0.011,0.01,5,30.9,54.8,NNE,0.6
R5,2023,8,11,9,0.002,0.019,0.015,0.2,0.017,0.014,6,32.7,51,W,0.8
R5,2023,8,11,10,0.003,0.021,0.026,0.3,0.009,0.013,5,33.5,49.9,WSW,1.5
R5,2023,8,11,11,0.002,0.028,0.041,0.2,0.004,0.01,10,34.1,49.7,SW,1.6
R5,2023,8,11,12,0.002,0.031,0.043,0.2,0.004,0.01,9,33.9,53.2,WSW,1.9
R5,2023,8,11,13,0.002,0.032,0.04,0.1,0.003,0.006,7,34,54.6,WSW,2
R5,2023,8,11,14,0.001,0.022,0.038,0.1,0.004,0.006,6,33.9,54,SW,2.4
R5,2023,8,11,15,0.002,0.018,0.035,0.1,0.004,0.007,6,34,53.9,SW,2.4
R5,2023,8,11,16,0.001,0.018,0.027,0.1,0.005,0.007,6,33.2,56.5,SW,2.4
R5,2023,8,11,17,0.001,0.013,0.023,0.1,0.005,0.007,5,33.2,54.6,SW,2
R5,2023,8,11,18,0.002,0.01,0.022,0.1,0.002,0.005,5,32,55,SSW,1.4
R5,2023,8,11,19,0.001,0.011,0.023,0.1,0.002,0.006,7,31.3,59.5,SSW,1.5
R5,2023,8,11,20,0.001,0.018,0.029,0.1,0.001,0.007,6,30.6,63.2,S,1.2
R5,2023,8,11,21,0.002,0.028,0.027,0.1,0.001,0.011,7,30.1,68.9,SSW,0.8
R5,2023,8,11,22,0.001,0.021,0.025,0.1,0.001,0.011,7,29.7,72.1,S,1.6
R5,2023,8,11,23,0.002,0.026,0.022,0.1,0.001,0.011,7,29.6,74.1,S,0.7
R5,2023,8,11,24,0.001,0.022,0.025,0.1,0.001,0.007,6,29.4,75.1,SW,0.4
R5,2023,8,12,1,0.002,0.011,0.015,0.2,0.003,0.009,6,29.1,70.1,CALM,0.1
R5,2023,8,12,2,0.001,0.013,0.011,0.2,0.003,0.009,6,28.8,71,N,0.5
R5,2023,8,12,3,0.002,0.017,0.007,0.2,0.002,0.01,7,28.5,71.9,WNW,0.5
R5,2023,8,12,4,0.002,0.015,0.005,0.2,0.003,0.012,7,28.1,73.2,NW,0.5
R5,2023,8,12,5,0.002,0.017,0.004,0.1,0.003,0.011,6,27.2,76.9,NNW,0.4
R5,2023,8,12,6,0.002,0.014,0.004,0.2,0.005,0.011,7,27.2,76.9,NW,0.5
R5,2023,8,12,7,0.002,0.015,0.006,0.2,0.008,0.011,7,28.7,70.8,NW,0.4
R5,2023,8,12,8,0.003,0.03,0.012,0.2,0.01,0.012,7,30.5,62.8,NW,0.6
R5,2023,8,12,9,0.003,0.022,0.024,0.2,0.007,0.011,8,32.4,57.3,WNW,0.9
R5,2023,8,12,10,0.002,0.023,0.034,0.2,0.005,0.013,7,33.5,52.8,WSW,1.3
R5,2023,8,12,11,0.003,0.027,0.044,0.2,0.004,0.01,10,35,47.9,WNW,1
R5,2023,8,12,12,0.002,0.032,0.054,0.2,0.002,0.008,9,35.6,50.7,WSW,1.8
R5,2023,8,12,13,0.002,0.028,0.058,0.1,0.002,0.008,10,36.8,46.7,WSW,1.6
R5,2023,8,12,14,0.002,0.023,0.061,0.1,0.001,0.006,8,37.4,45.4,SW,1.6
R5,2023,8,12,15,0.002,0.027,0.071,0.1,0.001,0.005,9,37.6,46.7,SW,1.8
R5,2023,8,12,16,0.002,0.033,0.082,0.2,0.001,0.007,10,36.2,51.8,SW,1.6
R5,2023,8,12,17,0.002,0.037,0.068,0.2,0.001,0.01,10,35.7,50.9,SW,1.9
R5,2023,8,12,18,0.002,0.051,0.061,0.3,0.001,0.006,11,32,67.7,SSE,4.7
R5,2023,8,12,19,0.004,0.048,0.052,0.4,0.001,0.012,13,30.6,76.1,SSE,3.4
R5,2023,8,12,20,0.002,0.037,0.054,0.2,0,0.006,10,30,79,S,2.7
R5,2023,8,12,21,0.002,0.027,0.039,0.2,0,0.006,7,29.9,79.4,S,1.6
R5,2023,8,12,22,0.003,0.036,0.033,0.2,0,0.008,8,30,79.3,SSW,0.7
R5,2023,8,12,23,0.002,0.026,0.036,0.1,0,0.002,7,29.7,79.8,SSW,0.8
R5,2023,8,12,24,0.002,0.026,0.031,0.1,0.001,0.005,6,29.6,80.6,SW,0.6
R5,2023,8,13,1,0.001,0.029,0.036,0.1,0,0.003,8,29.4,81.4,SW,0.5
R5,2023,8,13,2,0.001,0.019,0.034,0.1,0,0.003,5,29.4,79.1,WSW,0.8
R5,2023,8,13,3,0.002,0.01,0.032,0.1,0,0.003,4,29.3,75.6,CALM,0.1
R5,2023,8,13,4,0.001,0.014,0.03,0.1,0,0.003,4,29.6,75.7,WSW,0.5
R5,2023,8,13,5,0.001,0.025,0.021,0.1,0.001,0.005,5,29.1,80.2,NW,0.5
R5,2023,8,13,6,0.001,0.027,0.015,0.2,0.001,0.007,9,28.5,80.7,NNW,0.3
R5,2023,8,13,7,0.002,0.026,0.016,0.2,0.002,0.008,10,29.6,74.4,NNW,0.5
R5,2023,8,13,8,0.002,0.033,0.021,0.2,0.003,0.008,8,32,59.5,NNE,0.7
R5,2023,8,13,9,0.003,0.014,0.029,0.3,0.002,0.007,7,34,51.8,WNW,0.8
R5,2023,8,13,10,0.002,0.033,0.042,0.3,0.001,0.005,7,35.4,49.2,NW,0.7
R5,2023,8,13,11,0.002,0.032,0.053,0.2,0.001,0.003,9,35.2,50.5,WNW,0.9
R5,2023,8,13,12,0.002,0.022,0.055,0.2,0,0.002,10,37,44.1,NW,0.9
R5,2023,8,13,13,0.002,0.02,0.055,0.2,0.001,0.003,10,38.3,41.7,WSW,2
R5,2023,8,13,14,0.002,0.054,0.082,0.2,0,0.003,14,36.9,53.3,SW,2.5
R5,2023,8,13,15,0.002,0.031,0.073,0.2,0.001,0.005,12,37.1,48.5,SW,2.4
R5,2023,8,13,16,0.002,0.075,0.074,0.2,0,0.002,14,35,59.3,SW,2.8
R5,2023,8,13,17,0.001,0.047,0.054,0.2,0,0.003,10,34.5,58,S,2.1
R5,2023,8,13,18,0.002,0.03,0.024,0.2,0.001,0.004,7,32.9,64.5,SSW,2.3
R5,2023,8,13,19,0.002,0.105,0.019,0.2,0,0.005,9,32,75.1,W,2.5
R5,2023,8,13,20,0.001,0,0.02,0.1,0,0.004,6,30.5,70.7,NW,2.8
R5,2023,8,13,21,0.001,0.012,0.026,0.2,0,0.003,6,27.1,85.5,NNW,1.1
R5,2023,8,13,22,0.001,0.01,0.023,0.2,0.001,0.004,3,27.1,85.3,NNW,0.8
R5,2023,8,13,23,0.002,0.006,0.022,0.1,0,0.004,2,27.6,83.6,NW,0.9
R5,2023,8,13,24,0.001,0.002,0.021,0.1,0,0.004,2,27.5,83,NW,0.4
R5,2023,8,14,1,0.001,0.002,0.02,0.1,0.001,0.004,3,27.9,81.1,NNE,1.9
R5,2023,8,14,2,0.001,0.006,0.019,0.1,0.001,0.004,3,28.1,79.6,NNE,1.3
R5,2023,8,14,3,0.001,0.006,0.018,0.1,0.001,0.004,4,28.4,79.3,N,1.2
R5,2023,8,14,4,0.002,0.015,0.015,0.2,0.001,0.005,4,27.6,84.2,NNW,0.8
R5,2023,8,14,5,0.001,0.012,0.012,0.2,0.001,0.006,3,27.8,84.6,NW,0.4
R5,2023,8,14,6,0.001,0.012,0.007,0.2,0.002,0.009,4,27.3,86.4,NNW,1.2
R5,2023,8,14,7,0.002,0.012,0.007,0.2,0.005,0.009,5,28.3,79.6,N,0.8
R5,2023,8,14,8,0.002,0.012,0.008,0.2,0.007,0.008,8,30.1,66.9,NW,0.5
R5,2023,8,14,9,0.002,0.023,0.013,0.2,0.005,0.006,6,31.2,63.7,NNE,1.5
R5,2023,8,14,10,0.002,0.013,0.017,0.2,0.004,0.006,7,32.6,58.8,NNE,1
R5,2023,8,14,11,0.002,0.024,0.025,0.1,0.003,0.006,8,33.6,56.2,NNE,0.7
R5,2023,8,14,12,0.001,0.023,0.027,0.2,0.007,0.011,8,35.1,52.9,WNW,0.9
R5,2023,8,14,13,0.001,0.023,0.04,0.3,0.003,0.007,7,35.3,51.7,SW,0.8
R5,2023,8,14,14,0.002,0.028,0.044,0.5,0.003,0.012,9,34.7,53.3,SW,1.4
R5,2023,8,14,15,0.002,0.076,0.049,0.3,0.001,0.007,11,32.6,67.8,SSW,2.4
R5,2023,8,14,16,0.002,0.062,0.038,0.2,0.001,0.005,9,31.5,79.7,S,1.6
R5,2023,8,14,17,0.001,0.003,0.022,0.2,0.001,0.005,7,31.8,72.6,SW,0.5
R5,2023,8,14,18,0.002,0.013,0.012,0.3,0.001,0.005,8,29.9,81.1,E,1
R5,2023,8,14,19,0.001,0.003,0.005,0.2,0.003,0.007,2,30.6,73.9,E,1.3
R5,2023,8,14,20,0.001,0.006,0.004,0.2,0.002,0.007,3,31,71.6,E,0.9
R5,2023,8,14,21,0.001,0.029,0.009,0.2,0.003,0.009,5,29.6,85.5,SW,0.6
R5,2023,8,14,22,0.002,0.023,0.004,0.5,0.004,0.008,5,27.8,94.6,NE,0.4
R5,2023,8,14,23,0.001,0.018,0.004,0.2,0.002,0.007,3,28.1,92.2,NE,0.6
R5,2023,8,14,24,0.001,0,0.004,0.1,0.002,0.006,3,29,84.2,ENE,1
R5,2023,8,15,1,0.001,0.006,0.005,0.1,0.002,0.005,3,29.3,76.9,ENE,1.5
R5,2023,8,15,2,0.001,0.019,0.008,0.1,0.001,0.003,5,27.3,91.2,E,4.1
R5,2023,8,15,3,0.001,0.017,0.013,0.1,0.001,0.004,5,27.9,86.4,ENE,1.4
R5,2023,8,15,4,0.001,0.013,0.013,0.1,0.001,0.004,5,27.8,84.3,ENE,2.4
R5,2023,8,15,5,0.001,0.039,0.02,0.2,0.001,0.005,10,26.7,98.1,E,5.3
R5,2023,8,15,6,0.002,0.028,0.019,0.5,0.001,0.008,8,26.6,92.8,E,1.9
R5,2023,8,15,7,0.001,0.031,0.021,0.3,0.001,0.007,10,26.9,88.8,E,4.5
R5,2023,8,15,8,0.002,0.057,0.021,0.6,0.001,0.008,14,26.1,99.2,ESE,5.1
R5,2023,8,15,9,0.002,0.034,0.022,0.6,0.002,0.008,10,26.2,92.6,E,5.7
R5,2023,8,15,10,0.002,0.047,0.023,0.6,0.001,0.007,11,27.8,84.8,ESE,6.1
R5,2023,8,15,11,0.002,0.053,0.025,0.2,0.001,0.003,13,27.6,88.9,SE,5.6
R5,2023,8,15,12,0.001,0.056,0.025,0.2,0.001,0.003,13,27.1,89.9,ESE,5
R5,2023,8,15,13,0.001,0.056,0.026,0.2,0,0.003,11,27.6,88.3,SE,4.8
R5,2023,8,15,14,0.001,0.063,0.029,0.2,0,0.002,15,28.4,85.6,SE,4.8
R5,2023,8,15,15,0.002,0.061,0.028,0.2,0,0.003,16,28.7,83.4,SE,5.6
R5,2023,8,15,16,0.002,0.069,0.027,0.2,0,0.002,17,28.1,86.3,SE,5.5
R5,2023,8,15,17,0.001,0.072,0.028,0.2,0,0.002,19,28.2,85.1,SE,5.6
R5,2023,8,15,18,0.001,0.079,0.026,0.2,0,0.002,20,28.1,86.4,SE,5.5
R5,2023,8,15,19,0.002,0.085,0.025,0.2,0,0.002,22,27.9,88,SE,5.2
R5,2023,8,15,20,0.001,0.086,0.025,0.2,0,0.002,21,27.8,88.2,SE,5.5
R5,2023,8,15,21,0.001,0.084,0.026,0.2,0,0.002,20,27.2,92.6,SE,5.4
R5,2023,8,15,22,0.001,0.08,0.024,0.2,0,0.004,16,27.2,92.8,SSE,5.8
R5,2023,8,15,23,0.001,0.086,0.024,0.2,0,0.004,15,27.3,93.3,SSE,4.9
R5,2023,8,15,24,0.001,0.101,0.024,0.2,0,0.003,15,27,99.2,SSE,5.9
R5,2023,8,16,1,0.001,0.081,0.025,0.1,0,0.002,14,27.1,94.3,SSE,6.1
R5,2023,8,16,2,0.001,0.083,0.027,0.1,0,0.001,15,25.8,99.2,SW,2.1
R5,2023,8,16,3,0.001,0.067,0.027,0.1,0,0.001,14,26.7,96.5,SSE,4.7
R5,2023,8,16,4,0.001,0.048,0.026,0.1,0,0.003,11,26.7,93.8,SE,3.3
R5,2023,8,16,5,0.001,0.071,0.022,0.1,0,0.004,12,27.1,92.9,SSE,3.3
R5,2023,8,16,6,0.001,0.076,0.022,0.1,0,0.005,14,27.3,92.3,SSE,3.7
R5,2023,8,16,7,0.002,0.079,0.019,0.2,0.001,0.006,15,27.6,91.9,SSE,3.1
R5,2023,8,16,8,0.002,0.064,0.018,0.2,0.001,0.007,13,28.1,88.4,SSE,3.3
R5,2023,8,16,9,0.002,0.052,0.019,0.1,0.005,0.008,12,29.6,81.9,SSE,2.8
R5,2023,8,16,10,0.001,0.085,0.022,0.1,0.004,0.008,15,30.1,80.5,SSE,2.6
R5,2023,8,16,11,0.001,0.075,0.029,0.2,0.002,0.005,12,31.1,74.8,SSE,3.9
R5,2023,8,16,12,0.002,0.039,0.033,0.2,0.003,0.006,11,32.7,67.1,SSE,4.2
R5,2023,8,16,13,0.002,0.063,0.035,0.1,0.002,0.004,11,33.3,64.4,SSE,3.5
R5,2023,8,16,14,0.002,0.05,0.039,0.2,0.002,0.007,12,32.2,68.1,SSE,3.7
R5,2023,8,16,15,0.001,0.098,0.033,0.2,0.002,0.007,11,32,70.2,SSE,4.4
R5,2023,8,16,16,0.002,0.022,0.029,0.2,0.003,0.007,9,31.5,71.9,SE,3.4
R5,2023,8,16,17,0.002,0.022,0.025,0.2,0.003,0.008,8,31.1,73.9,SE,2.8
R5,2023,8,16,18,0.002,0.045,0.021,0.2,0.002,0.009,9,29.8,80.7,SSE,3.5
R5,2023,8,16,19,0.002,0.043,0.017,0.2,0.001,0.01,9,29.3,82.5,SE,2.1
R5,2023,8,16,20,0.002,0.048,0.012,0.2,0.001,0.013,9,29,85,SE,1.9
R5,2023,8,16,21,0.003,0.07,0.006,0.2,0.008,0.018,10,29.1,85.4,SE,1.4
R5,2023,8,16,22,0.004,0.074,0.005,0.4,0.008,0.017,10,28.9,86.4,ESE,1.7
R5,2023,8,16,23,0.003,0.08,0.006,0.2,0.007,0.015,10,28.5,88.4,SE,2.1
R5,2023,8,16,24,0.002,0.051,0.006,0.1,0.005,0.014,9,28.3,90.4,SE,2.3
R5,2023,8,17,1,***,0.03,0.006,***,***,***,7,28.2,89.7,SE,2.4
R5,2023,8,17,2,0.003,0.053,0.007,0.2,0.003,0.017,7,27.9,91.5,SE,2.1
R5,2023,8,17,3,0.003,0.06,0.006,0.2,0.004,0.02,8,27.8,91.8,SE,2.3
R5,2023,8,17,4,0.004,0.049,0.004,0.4,0.008,0.018,8,27.9,90.9,ESE,1.6
R5,2023,8,17,5,0.004,0.04,0.005,0.2,0.009,0.015,8,27.8,90.8,SE,1.4
R5,2023,8,17,6,0.003,0.029,0.005,0.2,0.006,0.015,7,28.1,86.6,SE,2.2
R5,2023,8,17,7,0.003,0.033,0.011,0.1,0.004,0.01,6,28.4,86.7,SE,2.4
R5,2023,8,17,8,0.003,0.021,0.011,0.2,0.013,0.011,8,29.8,77.8,SE,2.2
R5,2023,8,17,9,0.002,0.04,0.015,0.2,0.013,0.01,8,30.6,75.1,SE,3